Mullan, ID

6:11 AM PST on February 07, 2016 (GMT -0800)
Mullan Pass

Weather History for KMLP - January, 2013

Change the Weather History Date:

Sunday, January 6, 2013

  Actual Average (K3TH) Record (K3TH)
Temperature  
Mean Temperature 22 °F -  
Max Temperature 24 °F 33 °F 41 °F (1998)
Min Temperature 21 °F 26 °F 21 °F (1997)
Degree Days  
Heating Degree Days 42    
Moisture  
Dew Point 20 °F    
Average Humidity 90    
Maximum Humidity 96    
Minimum Humidity 80    
Precipitation  
Precipitation 0.13 in - - ()
Sea Level Pressure  
Sea Level Pressure 29.98 in    
Wind  
Wind Speed 6 mph (SW)    
Max Wind Speed 10 mph    
Max Gust Speed 24 mph    
Visibility 2 miles    
Events Fog , Snow    
Averages and records for this station are not official NWS values.
T = Trace of Precipitation, MM = Missing Value Source: NWS Daily Summary

Daily Weather History Graph

Daily Weather History Graph

Search for Another Location

Airport or City:

Trip Planner

Search our weather history database for the weather conditions in past years. The results will help you decide how hot, cold, wet, or windy it might be!

Date:

Astronomy

Jan. 06, 2013 Rise Set
Actual Time 7:29 AM PST 4:08 PM PST
Civil Twilight 6:54 AM PST 4:43 PM PST
Nautical Twilight 6:15 AM PST 5:22 PM PST
Astronomical Twilight 5:38 AM PST 5:59 PM PST
Moon 1:39 AM PST (1/6) 11:46 AM PST (1/6)
Length of Visible Light 9h 49m
Length of Day
8h 38m
Waning Crescent, 32% of the Moon is Illuminated
Jan 6
Waning Crescent
Jan 11
New
Jan 18
First Quarter
Jan 26
Full
Feb 3
Last Quarter

Hourly Weather History & Observations

Time (PST) Temp. Windchill Dew Point Humidity Pressure Visibility Wind Dir Wind Speed Gust Speed Precip Events Conditions
12:25 AM 21.2 °F 11.7 °F 19.4 °F 93% 29.99 in 10.0 mi WSW 8.1 mph - N/A   Overcast
12:53 AM 21.0 °F 16.2 °F 19.0 °F 92% 30.14 in 8.0 mi Variable 3.5 mph - N/A   Overcast
1:02 AM 21.2 °F 13.6 °F 19.4 °F 93% 29.98 in 7.0 mi Variable 5.8 mph - N/A   Overcast
1:25 AM 21.2 °F 12.6 °F 19.4 °F 93% 29.98 in 10.0 mi SW 6.9 mph - N/A   Overcast
1:45 AM 21.2 °F 14.9 °F 19.4 °F 93% 29.98 in 10.0 mi Variable 4.6 mph - N/A   Overcast
2:17 AM 21.2 °F 13.6 °F 19.4 °F 93% 29.97 in 10.0 mi Variable 5.8 mph - 0.00 in   Overcast
2:53 AM 21.0 °F 14.6 °F 19.0 °F 92% 30.11 in 10.0 mi Variable 4.6 mph - 0.00 in   Overcast
3:00 AM 21.2 °F 14.9 °F 19.4 °F 93% 29.97 in 8.0 mi Variable 4.6 mph - 0.00 in Snow Light Snow
3:53 AM 21.9 °F 11.0 °F 19.9 °F 92% 30.09 in 7.0 mi SW 10.4 mph 17.3 mph 0.00 in Snow Light Snow
4:36 AM 21.2 °F 13.6 °F 19.4 °F 93% 29.95 in 1.8 mi Variable 5.8 mph - 0.01 in Snow Light Snow
4:48 AM 21.2 °F 16.4 °F 19.4 °F 93% 29.95 in 1.0 mi Variable 3.5 mph - 0.01 in Snow Light Snow
4:53 AM 21.0 °F - 19.9 °F 96% 30.09 in 1.0 mi Calm Calm - 0.02 in Snow Light Snow
5:08 AM 21.2 °F 13.6 °F 19.4 °F 93% 29.95 in 1.8 mi Variable 5.8 mph - 0.00 in Snow Light Snow
5:21 AM 21.2 °F 13.6 °F 19.4 °F 93% 29.95 in 1.0 mi Variable 5.8 mph - 0.00 in Snow Light Snow
5:37 AM 21.2 °F 16.4 °F 19.4 °F 93% 29.94 in 1.5 mi Variable 3.5 mph - 0.00 in Snow Light Snow
5:50 AM 21.2 °F 14.9 °F 19.4 °F 93% 29.94 in 1.2 mi Variable 4.6 mph - 0.00 in Snow Light Snow
5:53 AM 21.0 °F 14.6 °F 19.9 °F 96% 30.07 in 1.5 mi Variable 4.6 mph - 0.00 in Snow Light Snow
6:04 AM 21.2 °F 14.9 °F 19.4 °F 93% 29.94 in 2.5 mi Variable 4.6 mph - 0.00 in Snow Light Snow
6:12 AM 21.2 °F 16.4 °F 19.4 °F 93% 29.93 in 3.0 mi Variable 3.5 mph - 0.00 in Snow Light Snow
6:31 AM 21.2 °F 13.6 °F 19.4 °F 93% 29.93 in 1.8 mi Variable 5.8 mph - 0.01 in Snow Light Snow
6:46 AM 21.2 °F 12.6 °F 19.4 °F 93% 29.92 in 3.0 mi SSW 6.9 mph - 0.01 in Snow Light Snow
6:53 AM 21.0 °F 11.4 °F 19.9 °F 96% 30.07 in 4.0 mi SW 8.1 mph - 0.01 in Snow Light Snow
7:16 AM 21.2 °F 16.4 °F 19.4 °F 93% 29.93 in 2.0 mi Variable 3.5 mph - 0.00 in Snow Light Snow
7:25 AM 21.2 °F - 19.4 °F 93% 29.93 in 1.5 mi Calm Calm - 0.00 in Snow Light Snow
7:31 AM 21.2 °F 16.4 °F 19.4 °F 93% 29.93 in 0.8 mi Variable 3.5 mph - 0.01 in Snow Light Snow
7:38 AM 21.2 °F 14.9 °F 19.4 °F 93% 29.93 in 0.8 mi Variable 4.6 mph - 0.01 in Snow Light Snow
7:53 AM 21.0 °F 16.2 °F 19.9 °F 96% 30.07 in 3.0 mi Variable 3.5 mph - 0.02 in Snow Light Snow
8:10 AM 21.2 °F 11.7 °F 19.4 °F 93% 29.93 in 4.0 mi WSW 8.1 mph - 0.00 in Snow Light Snow
8:15 AM 21.2 °F 12.6 °F 19.4 °F 93% 29.94 in 2.5 mi Variable 6.9 mph - 0.00 in Snow Light Snow
8:20 AM 21.2 °F 11.7 °F 19.4 °F 93% 29.94 in 1.2 mi WSW 8.1 mph - 0.00 in Snow Light Snow
8:42 AM 21.2 °F 13.6 °F 19.4 °F 93% 29.94 in 2.0 mi Variable 5.8 mph - 0.00 in   Overcast
8:51 AM 21.2 °F 12.6 °F 19.4 °F 93% 29.95 in 1.2 mi Variable 6.9 mph - 0.00 in   Overcast
8:53 AM 21.0 °F 12.4 °F 19.9 °F 96% 30.09 in 0.8 mi WSW 6.9 mph - 0.00 in Snow Light Snow
9:04 AM 21.2 °F 14.9 °F 19.4 °F 93% 29.95 in 0.2 mi Variable 4.6 mph - 0.00 in Fog , Snow Light Snow
9:53 AM 21.9 °F 11.7 °F 19.9 °F 92% 30.09 in 0.2 mi WSW 9.2 mph - 0.00 in Fog , Snow Light Snow
10:53 AM 23.0 °F 17.0 °F 19.9 °F 88% 30.09 in 0.2 mi Variable 4.6 mph - 0.01 in Fog , Snow Light Snow
11:50 AM 23.0 °F 15.8 °F 21.2 °F 93% 29.94 in 0.2 mi Variable 5.8 mph - 0.02 in Fog , Snow Light Snow
11:53 AM 23.0 °F 17.0 °F 19.9 °F 88% 30.08 in 0.2 mi Variable 4.6 mph - 0.02 in Fog , Snow Light Snow
12:53 PM 23.0 °F 13.9 °F 19.9 °F 88% 30.06 in 0.2 mi SW 8.1 mph - 0.01 in Fog , Snow Light Snow
1:09 PM 23.0 °F 14.7 °F 19.4 °F 86% 29.91 in 0.5 mi Variable 6.9 mph - 0.00 in Fog , Snow Light Snow
1:19 PM 23.0 °F 13.9 °F 19.4 °F 86% 29.91 in 1.0 mi SW 8.1 mph - 0.00 in Snow Light Snow
1:27 PM 23.0 °F 13.9 °F 19.4 °F 86% 29.91 in 0.8 mi SW 8.1 mph - 0.00 in   Mist
1:53 PM 21.9 °F 12.5 °F 19.9 °F 92% 30.06 in 0.5 mi SW 8.1 mph 17.3 mph 0.00 in Fog Light Freezing Fog
2:53 PM 21.9 °F 12.5 °F 19.9 °F 92% 30.07 in 0.5 mi SW 8.1 mph - N/A Fog Light Freezing Fog
3:07 PM 21.2 °F 12.6 °F 19.4 °F 93% 29.91 in - Variable 6.9 mph - N/A   Overcast
3:11 PM 21.2 °F 12.6 °F 19.4 °F 93% 29.91 in 0.8 mi SW 6.9 mph - N/A   Mist
3:20 PM 21.2 °F 12.6 °F 19.4 °F 93% 29.91 in 0.2 mi Variable 6.9 mph - N/A Fog Light Freezing Fog
3:41 PM 21.2 °F 12.6 °F 19.4 °F 93% 29.92 in 0.5 mi SW 6.9 mph - N/A Fog Light Freezing Fog
3:48 PM 21.2 °F 13.6 °F 19.4 °F 93% 29.92 in 0.2 mi Variable 5.8 mph - N/A Fog Light Freezing Fog
3:53 PM 21.9 °F 13.4 °F 19.9 °F 92% 30.08 in 0.2 mi Variable 6.9 mph - N/A Fog Light Freezing Fog
4:16 PM 21.2 °F - 19.4 °F 93% 29.92 in 0.5 mi Calm Calm - 0.00 in Fog , Snow Light Snow
4:26 PM 23.0 °F 18.4 °F 19.4 °F 86% 29.92 in 0.2 mi Variable 3.5 mph - 0.00 in Fog , Snow Light Snow
4:35 PM 21.2 °F 12.6 °F 19.4 °F 93% 29.92 in 0.5 mi SSW 6.9 mph - 0.00 in Fog Light Freezing Fog
4:53 PM 23.0 °F 15.8 °F 19.9 °F 88% 30.07 in 0.2 mi Variable 5.8 mph - 0.00 in Fog Light Freezing Fog
5:53 PM 23.0 °F 13.1 °F 19.9 °F 88% 30.07 in 0.2 mi WSW 9.2 mph 18.4 mph N/A Fog Light Freezing Fog
6:53 PM 23.0 °F 13.9 °F 19.9 °F 88% 30.07 in 0.2 mi SW 8.1 mph - 0.01 in Fog , Snow Light Snow
7:53 PM 23.0 °F 15.8 °F 19.9 °F 88% 30.08 in 0.2 mi Variable 5.8 mph - 0.00 in Fog , Snow Light Snow
8:53 PM 24.1 °F 16.0 °F 21.0 °F 88% 30.07 in 0.2 mi SW 6.9 mph 20.7 mph 0.00 in Fog , Snow Light Snow
9:46 PM 24.8 °F 17.9 °F 19.4 °F 80% 29.93 in 0.5 mi Variable 5.8 mph - 0.01 in Fog , Snow Light Snow
9:53 PM 24.1 °F 14.4 °F 19.9 °F 84% 30.07 in 0.8 mi WSW 9.2 mph 19.6 mph 0.01 in Snow Light Snow
10:00 PM 24.8 °F 15.3 °F 19.4 °F 80% 29.93 in 1.5 mi SW 9.2 mph 19.6 mph 0.00 in Snow Light Snow
10:21 PM 24.8 °F 16.1 °F 19.4 °F 80% 29.93 in 3.0 mi SW 8.1 mph - 0.00 in Snow Light Snow
10:53 PM 24.1 °F 15.2 °F 19.9 °F 84% 30.05 in 3.0 mi WSW 8.1 mph 17.3 mph 0.01 in Snow Light Snow
11:02 PM 24.8 °F 16.1 °F 19.4 °F 80% 29.91 in 1.8 mi WSW 8.1 mph 19.6 mph 0.00 in Snow Light Snow
11:30 PM 24.8 °F 16.1 °F 19.4 °F 80% 29.90 in 1.8 mi West 8.1 mph 24.2 mph 0.00 in Snow Light Snow
11:44 PM 24.8 °F 16.1 °F 19.4 °F 80% 29.89 in 2.0 mi WSW 8.1 mph 18.4 mph 0.01 in Snow Light Snow
11:51 PM 24.8 °F 15.3 °F 19.4 °F 80% 29.89 in 2.5 mi SW 9.2 mph 18.4 mph 0.01 in Snow Light Snow
11:53 PM 24.1 °F 13.7 °F 21.0 °F 88% 30.02 in 2.5 mi SW 10.4 mph 18.4 mph 0.01 in Snow Light Snow